| time (UTC) | temp F | wind direction | speed MPH | gust MPH | rain 1hr in | rain 24hr in | rain mn in | humidity % | barometer mb |
| 20260503201131 | 62 | 215 | 25.0 | 31.0 | 0.00 | 0.08 | 0.08 | 56 | 1013.8 |
| 20260503200627 | 63 | 210 | 26.0 | 27.0 | 0.00 | 0.08 | 0.08 | 55 | 1014.0 |
| 20260503200124 | 63 | 193 | 22.0 | 26.0 | 0.00 | 0.08 | 0.08 | 55 | 1014.0 |
| 20260503195621 | 62 | 190 | 15.0 | 18.0 | 0.00 | 0.08 | 0.08 | 59 | 1014.2 |
| 20260503195118 | 62 | 220 | 27.0 | 32.0 | 0.00 | 0.08 | 0.08 | 57 | 1014.4 |
| 20260503194615 | 62 | 218 | 26.0 | 32.0 | 0.00 | 0.08 | 0.08 | 54 | 1014.4 |
| 20260503194115 | 62 | 196 | 21.0 | 27.0 | 0.00 | 0.08 | 0.08 | 55 | 1014.5 |
| 20260503193613 | 61 | 195 | 22.0 | 29.0 | 0.00 | 0.08 | 0.08 | 56 | 1014.4 |
| 20260503193108 | 61 | 189 | 20.0 | 23.0 | 0.00 | 0.08 | 0.08 | 61 | 1014.5 |
| 20260503192604 | 60 | 224 | 16.0 | 18.0 | 0.00 | 0.08 | 0.08 | 64 | 1015.1 |
| 20260503192100 | 60 | 195 | 20.0 | 24.0 | 0.00 | 0.08 | 0.08 | 60 | 1015.1 |
| 20260503191557 | 60 | 193 | 15.0 | 18.0 | 0.00 | 0.08 | 0.08 | 64 | 1014.9 |
| 20260503191053 | 60 | 184 | 19.0 | 24.0 | 0.00 | 0.08 | 0.08 | 64 | 1015.1 |
| 20260503190550 | 59 | 186 | 22.0 | 26.0 | 0.00 | 0.08 | 0.08 | 67 | 1015.0 |
| 20260503190048 | 57 | 182 | 12.0 | 14.0 | 0.00 | 0.08 | 0.08 | 77 | 1015.1 |
| 20260503185544 | 56 | 148 | 14.0 | 16.0 | 0.00 | 0.08 | 0.08 | 78 | 1015.3 |
| 20260503185044 | 55 | 133 | 7.0 | 9.0 | 0.00 | 0.08 | 0.08 | 82 | 1015.5 |
| 20260503184540 | 55 | 173 | 9.0 | 11.0 | 0.00 | 0.08 | 0.08 | 81 | 1015.8 |
| 20260503184037 | 53 | 182 | 10.0 | 13.0 | 0.00 | 0.08 | 0.08 | 82 | 1016.0 |
| 20260503183533 | 52 | 152 | 7.0 | 9.0 | 0.00 | 0.08 | 0.08 | 89 | 1016.3 |
| 20260503183031 | 51 | 146 | 6.0 | 7.0 | 0.00 | 0.08 | 0.08 | 89 | 1016.5 |
| 20260503182529 | 51 | 148 | 5.0 | 6.0 | 0.00 | 0.08 | 0.08 | 87 | 1016.7 |
| 20260503182027 | 50 | 172 | 7.0 | 7.0 | 0.00 | 0.08 | 0.08 | 88 | 1017.0 |
| 20260503181523 | 50 | 161 | 5.0 | 7.0 | 0.00 | 0.08 | 0.08 | 89 | 1017.3 |
| 20260503181020 | 50 | 167 | 5.0 | 6.0 | 0.00 | 0.08 | 0.08 | 89 | 1017.6 |
| 20260503180517 | 50 | 181 | 9.0 | 9.0 | 0.00 | 0.08 | 0.08 | 88 | 1017.8 |
| 20260503180014 | 49 | 193 | 5.0 | 6.0 | 0.07 | 0.08 | 0.08 | 91 | 1018.1 |
| 20260503175512 | 50 | 220 | 7.0 | 8.0 | 0.12 | 0.08 | 0.08 | 89 | 1018.4 |
| 20260503175008 | 50 | 210 | 11.0 | 13.0 | 0.05 | 0.07 | 0.07 | 88 | 1018.4 |
| 20260503174506 | 51 | 223 | 21.0 | 23.0 | 0.00 | 0.06 | 0.06 | 78 | 1018.4 |
| 20260503174001 | 50 | 175 | 8.0 | 9.0 | 0.07 | 0.06 | 0.06 | 87 | 1018.3 |
| 20260503173457 | 50 | 201 | 8.0 | 9.0 | 0.07 | 0.06 | 0.06 | 79 | 1018.3 |
| 20260503172954 | 50 | 217 | 7.0 | 8.0 | 0.00 | 0.05 | 0.05 | 88 | 1018.7 |
| 20260503172452 | 51 | 214 | 7.0 | 8.0 | 0.00 | 0.05 | 0.05 | 86 | 1018.6 |
| 20260503171948 | 51 | 202 | 10.0 | 13.0 | 0.00 | 0.05 | 0.05 | 85 | 1018.7 |
| 20260503171444 | 50 | 196 | 7.0 | 8.0 | 0.05 | 0.05 | 0.05 | 85 | 1018.5 |
| 20260503170942 | 50 | 204 | 10.0 | 11.0 | 0.05 | 0.05 | 0.05 | 86 | 1018.9 |
| 20260503170438 | 50 | 205 | 9.0 | 10.0 | 0.00 | 0.04 | 0.04 | 85 | 1018.9 |
| 20260503150831 | 55 | 228 | 24.0 | 26.0 | 0.00 | 0.00 | 0.00 | 64 | 1019.2 |
| 20260503150327 | 55 | 219 | 20.0 | 24.0 | 0.00 | 0.00 | 0.00 | 64 | 1019.0 |
| 20260503140251 | 52 | 217 | 16.0 | 18.0 | 0.00 | 0.00 | 0.00 | 71 | 1020.0 |
| 20260503131221 | 49 | 218 | 11.0 | 11.0 | 0.00 | 0.00 | 0.00 | 74 | 1020.2 |
| 20260503130718 | 49 | 220 | 16.0 | 18.0 | 0.00 | 0.00 | 0.00 | 73 | 1019.9 |
| 20260503130215 | 49 | 233 | 12.0 | 16.0 | 0.00 | 0.00 | 0.00 | 74 | 1020.2 |
| 20260503120141 | 45 | 210 | 10.0 | 10.0 | 0.00 | 0.00 | 0.00 | 78 | 1020.0 |
| 20260503110609 | 42 | 204 | 7.0 | 8.0 | 0.00 | 0.00 | 0.00 | 80 | 1020.0 |
| 20260503110106 | 41 | 210 | 7.0 | 8.0 | 0.00 | 0.00 | 0.00 | 80 | 1019.9 |
| 20260503090455 | 42 | 229 | 9.0 | 9.0 | 0.00 | 0.00 | 0.00 | 76 | 1019.9 |
| 20260503081422 | 41 | 216 | 7.0 | 7.0 | 0.00 | 0.00 | 0.00 | 80 | 1020.0 |
| 20260503080919 | 40 | 218 | 4.0 | 5.0 | 0.00 | 0.00 | 0.00 | 82 | 1020.0 |
| 20260503080415 | 40 | 211 | 5.0 | 6.0 | 0.00 | 0.00 | 0.00 | 81 | 1020.1 |
| 20260503072852 | 40 | 203 | 4.0 | 6.0 | 0.00 | 0.00 | 0.00 | 82 | 1020.2 |
| 20260503072349 | 41 | 200 | 5.0 | 6.0 | 0.00 | 0.00 | 0.00 | 82 | 1020.2 |
| 20260503071845 | 40 | 203 | 6.0 | 6.0 | 0.00 | 0.00 | 0.00 | 82 | 1020.4 |
| 20260503071343 | 40 | 212 | 5.0 | 6.0 | 0.00 | 0.00 | 0.00 | 83 | 1020.2 |
| 20260503070838 | 40 | 204 | 5.0 | 6.0 | 0.00 | 0.00 | 0.00 | 83 | 1020.3 |
| 20260503070337 | 41 | 208 | 5.0 | 6.0 | 0.00 | 0.00 | 0.00 | 83 | 1020.4 |
| 20260503060302 | 41 | 186 | 4.0 | 5.0 | 0.00 | 0.00 | 0.00 | 81 | 1020.9 |
| 20260503054749 | 42 | 209 | 5.0 | 6.0 | 0.00 | 0.00 | 0.00 | 80 | 1021.0 |
| 20260503054246 | 42 | 202 | 5.0 | 6.0 | 0.00 | 0.00 | 0.00 | 80 | 1021.3 |
| 20260503053744 | 42 | 210 | 5.0 | 6.0 | 0.00 | 0.00 | 0.00 | 81 | 1021.1 |
| 20260503053242 | 42 | 199 | 6.0 | 6.0 | 0.00 | 0.00 | 0.00 | 81 | 1021.0 |
| 20260503052738 | 42 | 207 | 6.0 | 7.0 | 0.00 | 0.00 | 0.00 | 81 | 1021.1 |
| 20260503052235 | 42 | 208 | 6.0 | 7.0 | 0.00 | 0.00 | 0.00 | 80 | 1021.4 |
| 20260503051730 | 42 | 204 | 5.0 | 6.0 | 0.00 | 0.00 | 0.00 | 80 | 1021.4 |
| 20260503051228 | 42 | 204 | 5.0 | 6.0 | 0.00 | 0.00 | 0.00 | 80 | 1021.3 |
| 20260503050724 | 42 | 211 | 5.0 | 6.0 | 0.00 | 0.00 | 0.00 | 81 | 1021.3 |
| 20260503050221 | 43 | 208 | 6.0 | 7.0 | 0.00 | 0.00 | 0.00 | 78 | 1021.3 |
| 20260503045718 | 42 | 188 | 5.0 | 6.0 | 0.00 | 0.00 | 0.00 | 79 | 1021.4 |
| 20260503045216 | 43 | 199 | 5.0 | 6.0 | 0.00 | 0.00 | 0.00 | 78 | 1021.6 |
| 20260503044712 | 42 | 201 | 5.0 | 6.0 | 0.00 | 0.00 | 0.00 | 78 | 1021.1 |
| 20260503044210 | 42 | 193 | 5.0 | 5.0 | 0.00 | 0.00 | 0.00 | 79 | 1021.6 |
| 20260503043706 | 42 | 194 | 5.0 | 6.0 | 0.00 | 0.00 | 0.00 | 79 | 1021.4 |
| 20260503043204 | 43 | 198 | 5.0 | 5.0 | 0.00 | 0.00 | 0.00 | 78 | 1021.3 |
| 20260503042659 | 42 | 200 | 5.0 | 6.0 | 0.00 | 0.00 | 0.00 | 80 | 1021.4 |
| 20260503042156 | 43 | 198 | 5.0 | 5.0 | 0.00 | 0.00 | 0.00 | 79 | 1021.7 |
| 20260503041652 | 43 | 201 | 5.0 | 6.0 | 0.00 | 0.00 | 0.00 | 78 | 1021.6 |
| 20260503041150 | 43 | 187 | 3.0 | 3.0 | 0.00 | 0.00 | 0.00 | 79 | 1021.5 |
| 20260503040647 | 43 | 187 | 3.0 | 3.0 | 0.00 | 0.00 | 0.00 | 79 | 1021.6 |
| 20260503040145 | 43 | 187 | 3.0 | 3.0 | 0.00 | 0.00 | 0.00 | 79 | 1021.5 |
| 20260503035641 | 43 | 183 | 3.0 | 5.0 | 0.00 | 0.00 | 0.00 | 79 | 1021.6 |
| 20260503035139 | 43 | 197 | 4.0 | 6.0 | 0.00 | 0.00 | 0.00 | 78 | 1021.7 |
| 20260503034636 | 44 | 192 | 3.0 | 3.0 | 0.00 | 0.00 | 0.00 | 77 | 1021.7 |
| 20260503034133 | 44 | 199 | 4.0 | 5.0 | 0.00 | 0.00 | 0.00 | 77 | 1021.5 |
| 20260503033630 | 44 | 179 | 5.0 | 6.0 | 0.00 | 0.00 | 0.00 | 76 | 1021.5 |
| 20260503033128 | 44 | 190 | 5.0 | 6.0 | 0.00 | 0.00 | 0.00 | 76 | 1021.5 |
| 20260503032626 | 44 | 196 | 4.0 | 6.0 | 0.00 | 0.00 | 0.00 | 76 | 1021.6 |
| 20260503032124 | 44 | 183 | 4.0 | 5.0 | 0.00 | 0.00 | 0.00 | 76 | 1021.6 |
| 20260503031621 | 44 | 183 | 4.0 | 5.0 | 0.00 | 0.00 | 0.00 | 76 | 1021.7 |
| 20260503031119 | 44 | 194 | 3.0 | 3.0 | 0.00 | 0.00 | 0.00 | 76 | 1021.7 |
| 20260503030615 | 44 | 185 | 3.0 | 5.0 | 0.00 | 0.00 | 0.00 | 75 | 1021.5 |
| 20260503030112 | 44 | 193 | 3.0 | 3.0 | 0.00 | 0.00 | 0.00 | 76 | 1021.7 |
| 20260503025608 | 44 | 181 | 2.0 | 2.0 | 0.00 | 0.00 | 0.00 | 76 | 1021.9 |
| 20260503025107 | 45 | 181 | 3.0 | 3.0 | 0.00 | 0.00 | 0.00 | 75 | 1021.7 |
| 20260503024603 | 45 | 184 | 3.0 | 3.0 | 0.00 | 0.00 | 0.00 | 75 | 1021.7 |
| 20260503024100 | 45 | 188 | 4.0 | 5.0 | 0.00 | 0.00 | 0.00 | 74 | 1021.6 |
| 20260503023556 | 45 | 185 | 3.0 | 3.0 | 0.00 | 0.00 | 0.00 | 75 | 1021.6 |
| 20260503023054 | 45 | 185 | 3.0 | 3.0 | 0.00 | 0.00 | 0.00 | 74 | 1021.6 |
| 20260503022549 | 45 | 194 | 4.0 | 5.0 | 0.00 | 0.00 | 0.00 | 73 | 1021.7 |
| 20260503022044 | 45 | 188 | 4.0 | 5.0 | 0.00 | 0.00 | 0.00 | 74 | 1021.7 |
| 20260503021541 | 45 | 184 | 3.0 | 3.0 | 0.00 | 0.00 | 0.00 | 74 | 1021.7 |
| 20260503021038 | 45 | 191 | 4.0 | 5.0 | 0.00 | 0.00 | 0.00 | 73 | 1021.8 |
| 20260503020535 | 45 | 182 | 3.0 | 5.0 | 0.00 | 0.00 | 0.00 | 74 | 1021.6 |
| 20260503020032 | 46 | 182 | 2.0 | 2.0 | 0.00 | 0.00 | 0.00 | 73 | 1021.6 |
| 20260503015529 | 47 | 188 | 3.0 | 5.0 | 0.00 | 0.00 | 0.00 | 72 | 1021.6 |
| 20260503015026 | 47 | 176 | 4.0 | 5.0 | 0.00 | 0.00 | 0.00 | 70 | 1021.4 |
| 20260503014522 | 46 | 190 | 3.0 | 5.0 | 0.00 | 0.00 | 0.00 | 73 | 1021.3 |
| 20260503014020 | 47 | 184 | 3.0 | 3.0 | 0.00 | 0.00 | 0.00 | 72 | 1021.5 |
| 20260503013517 | 47 | 186 | 3.0 | 3.0 | 0.00 | 0.00 | 0.00 | 70 | 1021.6 |
| 20260503013015 | 47 | 190 | 4.0 | 5.0 | 0.00 | 0.00 | 0.00 | 69 | 1021.4 |
| 20260503012512 | 48 | 193 | 4.0 | 5.0 | 0.00 | 0.00 | 0.00 | 71 | 1021.5 |
| 20260503012009 | 48 | 192 | 3.0 | 3.0 | 0.00 | 0.00 | 0.00 | 69 | 1021.3 |
| 20260503011506 | 48 | 182 | 3.0 | 3.0 | 0.00 | 0.00 | 0.00 | 68 | 1021.6 |
| 20260503011003 | 49 | 187 | 3.0 | 3.0 | 0.00 | 0.00 | 0.00 | 65 | 1021.4 |
| 20260503010458 | 49 | 185 | 3.0 | 3.0 | 0.00 | 0.00 | 0.00 | 63 | 1021.5 |
| 20260503005956 | 49 | 182 | 5.0 | 6.0 | 0.00 | 0.00 | 0.00 | 64 | 1021.3 |
| 20260503005453 | 50 | 191 | 3.0 | 3.0 | 0.00 | 0.00 | 0.00 | 63 | 1021.3 |
| 20260503004950 | 50 | 190 | 3.0 | 3.0 | 0.00 | 0.00 | 0.00 | 60 | 1021.4 |
| 20260503004446 | 50 | 198 | 4.0 | 5.0 | 0.00 | 0.00 | 0.00 | 58 | 1021.4 |
| 20260503003944 | 51 | 196 | 3.0 | 3.0 | 0.00 | 0.00 | 0.00 | 58 | 1021.4 |
| 20260503003441 | 51 | 196 | 2.0 | 2.0 | 0.00 | 0.00 | 0.00 | 55 | 1021.5 |
| 20260503002938 | 51 | 206 | 3.0 | 3.0 | 0.00 | 0.00 | 0.00 | 55 | 1021.4 |
| 20260503002435 | 51 | 214 | 3.0 | 3.0 | 0.00 | 0.00 | 0.00 | 56 | 1021.5 |
| 20260503001931 | 51 | 233 | 2.0 | 2.0 | 0.00 | 0.00 | 0.00 | 55 | 1021.6 |
| 20260503001428 | 51 | 241 | 2.0 | 2.0 | 0.00 | 0.00 | 0.00 | 53 | 1021.4 |
| 20260503000926 | 51 | 241 | 3.0 | 3.0 | 0.00 | 0.00 | 0.00 | 53 | 1021.3 |
| 20260503000422 | 52 | 242 | 3.0 | 3.0 | 0.00 | 0.00 | 0.00 | 53 | 1021.5 |
| 20260502235920 | 52 | 264 | 5.0 | 6.0 | 0.00 | 0.00 | 0.00 | 48 | 1021.7 |
| 20260502235416 | 53 | 257 | 5.0 | 5.0 | 0.00 | 0.00 | 0.00 | 49 | 1021.6 |
| 20260502234914 | 53 | 269 | 5.0 | 6.0 | 0.00 | 0.00 | 0.00 | 48 | 1021.5 |
| 20260502234410 | 54 | 252 | 5.0 | 6.0 | 0.00 | 0.00 | 0.00 | 46 | 1021.1 |
| 20260502233908 | 55 | 281 | 5.0 | 6.0 | 0.00 | 0.00 | 0.00 | 44 | 1021.5 |
| 20260502233403 | 54 | 259 | 5.0 | 5.0 | 0.00 | 0.00 | 0.00 | 48 | 1021.5 |
| 20260502232900 | 54 | 203 | 4.0 | 5.0 | 0.00 | 0.00 | 0.00 | 48 | 1021.5 |
| 20260502232357 | 55 | 249 | 3.0 | 3.0 | 0.00 | 0.00 | 0.00 | 48 | 1021.5 |
| 20260502231853 | 55 | 236 | 4.0 | 5.0 | 0.00 | 0.00 | 0.00 | 44 | 1021.5 |
| 20260502231351 | 55 | 262 | 5.0 | 5.0 | 0.00 | 0.00 | 0.00 | 45 | 1021.5 |
| 20260502230849 | 55 | 22 | 2.0 | 2.0 | 0.00 | 0.00 | 0.00 | 42 | 1021.7 |
| 20260502230347 | 55 | 254 | 3.0 | 5.0 | 0.00 | 0.00 | 0.00 | 43 | 1021.7 |
| 20260502225844 | 54 | 257 | 3.0 | 3.0 | 0.00 | 0.00 | 0.00 | 44 | 1021.6 |
| 20260502225340 | 54 | 226 | 5.0 | 6.0 | 0.00 | 0.00 | 0.00 | 46 | 1021.6 |
| 20260502224837 | 54 | 284 | 5.0 | 6.0 | 0.00 | 0.00 | 0.00 | 43 | 1021.8 |
| 20260502224333 | 54 | 246 | 5.0 | 6.0 | 0.00 | 0.00 | 0.00 | 47 | 1021.9 |
| 20260502223831 | 55 | 240 | 2.0 | 3.0 | 0.00 | 0.00 | 0.00 | 48 | 1021.7 |
| 20260502223329 | 54 | 232 | 0.0 | 0.0 | 0.00 | 0.00 | 0.00 | 43 | 1022.0 |
| 20260502222826 | 55 | 209 | 2.0 | 2.0 | 0.00 | 0.00 | 0.00 | 42 | 1021.9 |
| 20260502222324 | 54 | 262 | 3.0 | 3.0 | 0.00 | 0.00 | 0.00 | 46 | 1021.8 |
| 20260502221819 | 53 | 323 | 4.0 | 6.0 | 0.00 | 0.00 | 0.00 | 46 | 1021.8 |
| 20260502221316 | 53 | 252 | 3.0 | 3.0 | 0.00 | 0.00 | 0.00 | 48 | 1021.8 |
| 20260502220814 | 53 | 300 | 6.0 | 8.0 | 0.00 | 0.00 | 0.00 | 46 | 1021.9 |
| 20260502220309 | 53 | 241 | 4.0 | 5.0 | 0.00 | 0.00 | 0.00 | 48 | 1021.9 |
| 20260502215806 | 53 | 291 | 7.0 | 8.0 | 0.00 | 0.00 | 0.00 | 45 | 1022.1 |
| 20260502215304 | 54 | 273 | 4.0 | 5.0 | 0.00 | 0.00 | 0.00 | 45 | 1021.8 |
| 20260502214800 | 53 | 302 | 8.0 | 9.0 | 0.00 | 0.00 | 0.00 | 46 | 1022.1 |
| 20260502214256 | 53 | 258 | 7.0 | 8.0 | 0.00 | 0.00 | 0.00 | 48 | 1021.7 |
| 20260502213754 | 54 | 246 | 10.0 | 11.0 | 0.00 | 0.00 | 0.00 | 45 | 1021.9 |
| 20260502213251 | 54 | 275 | 4.0 | 6.0 | 0.00 | 0.00 | 0.00 | 45 | 1022.1 |
| 20260502212750 | 54 | 300 | 6.0 | 6.0 | 0.00 | 0.00 | 0.00 | 42 | 1021.9 |
| 20260502212247 | 55 | 334 | 11.0 | 14.0 | 0.00 | 0.00 | 0.00 | 43 | 1021.9 |
| 20260502211743 | 54 | 231 | 4.0 | 5.0 | 0.00 | 0.00 | 0.00 | 42 | 1022.0 |
| 20260502211240 | 54 | 310 | 7.0 | 8.0 | 0.00 | 0.00 | 0.00 | 41 | 1021.8 |
| 20260502210737 | 54 | 227 | 3.0 | 3.0 | 0.00 | 0.00 | 0.00 | 43 | 1021.8 |
| 20260502210235 | 55 | 260 | 4.0 | 5.0 | 0.00 | 0.00 | 0.00 | 41 | 1022.1 |
| 20260502205732 | 55 | 248 | 4.0 | 5.0 | 0.00 | 0.00 | 0.00 | 46 | 1022.0 |
| 20260502205227 | 55 | 271 | 7.0 | 9.0 | 0.00 | 0.00 | 0.00 | 41 | 1022.0 |
| 20260502204725 | 55 | 299 | 4.0 | 6.0 | 0.00 | 0.00 | 0.00 | 43 | 1022.2 |
| 20260502204222 | 54 | 328 | 2.0 | 2.0 | 0.00 | 0.00 | 0.00 | 42 | 1021.7 |
| 20260502203720 | 53 | 226 | 5.0 | 6.0 | 0.00 | 0.00 | 0.00 | 43 | 1022.3 |
| 20260502203218 | 53 | 289 | 6.0 | 7.0 | 0.00 | 0.00 | 0.00 | 41 | 1022.3 |
| 20260502202717 | 53 | 283 | 4.0 | 7.0 | 0.00 | 0.00 | 0.00 | 44 | 1022.3 |
| 20260502202216 | 54 | 2 | 3.0 | 5.0 | 0.00 | 0.00 | 0.00 | 48 | 1022.4 |
| 20260502201713 | 53 | 257 | 3.0 | 3.0 | 0.00 | 0.00 | 0.00 | 46 | 1022.6 |